Weather History for Zanesville, OH

Change the Weather History Date:

Monday, March 31, 2014

  Actual Average Record
Temperature  
Mean Temperature 44 °F 46 °F  
Max Temperature 64 °F 58 °F 83 °F (1998)
Min Temperature 24 °F 35 °F 16 °F (1969)
Degree Days  
Heating Degree Days 21 19  
Month to date heating degree days 901 751  
Since 1 July heating degree days 5458 4944  
Cooling Degree Days 0 0  
Month to date cooling degree days 0 1  
Year to date cooling degree days 0 1  
Moisture  
Dew Point 24 °F    
Average Humidity 54    
Maximum Humidity 88    
Minimum Humidity 19    
Precipitation  
Precipitation 0.00 in 0.12 in 0.88 in (1962)
Month to date precipitation 1.82 3.00  
Year to date precipitation 4.40 7.83  
Sea Level Pressure  
Sea Level Pressure 30.17 in    
Wind  
Wind Speed 2 mph (ESE)    
Max Wind Speed 8 mph    
Max Gust Speed 11 mph    
Visibility 10 miles    
Events      
T = Trace of Precipitation, MM = Missing Value Source: NWS Daily Summary

Daily Weather History Graph

Daily Weather History Graph

Search for Another Location

Airport:

Trip Planner

Search our weather history database for the weather conditions in past years. The results will help you decide how hot, cold, wet, or windy it might be!

Date:

Astronomy

Mar. 31, 2014 Rise Set
Actual Time 7:13 AM EDT 7:50 PM EDT
Civil Twilight 6:45 AM EDT 8:18 PM EDT
Nautical Twilight 6:13 AM EDT 8:50 PM EDT
Astronomical Twilight 5:40 AM EDT 9:23 PM EDT
Moon 7:35 AM EDT (3/31) 9:08 PM EDT (3/31)
Length of Visible Light 13h 32m
Length of Day
12h 37m
New Moon, 1% of the Moon is Illuminated
Mar 31
New Moon
Apr 7
First Quarter
Apr 15
Full
Apr 22
Last Quarter
Apr 29
New

Hourly Weather History & Observations

Time (EDT) Temp. Windchill Dew Point Humidity Pressure Visibility Wind Dir Wind Speed Gust Speed Precip Events Conditions
12:53 AM 30.9 °F - 23.0 °F 72% 30.18 in 10.0 mi Calm Calm - N/A   Clear
1:53 AM 28.9 °F - 24.1 °F 82% 30.18 in 10.0 mi Calm Calm - N/A   Clear
2:53 AM 26.1 °F - 23.0 °F 88% 30.18 in 10.0 mi Calm Calm - N/A   Clear
3:53 AM 26.1 °F - 23.0 °F 88% 30.17 in 10.0 mi Calm Calm - N/A   Clear
4:53 AM 27.0 °F - 21.9 °F 81% 30.18 in 10.0 mi Calm Calm - N/A   Clear
5:53 AM 25.0 °F - 21.9 °F 88% 30.17 in 10.0 mi Calm Calm - N/A   Clear
6:53 AM 24.1 °F 19.7 °F 21.0 °F 88% 30.19 in 10.0 mi ENE 3.5 mph - N/A   Clear
7:53 AM 26.1 °F 21.9 °F 21.9 °F 84% 30.24 in 10.0 mi SE 3.5 mph - N/A   Clear
8:53 AM 30.0 °F - 27.0 °F 88% 30.26 in 10.0 mi Calm Calm - N/A   Clear
9:53 AM 37.9 °F - 30.9 °F 76% 30.26 in 10.0 mi Calm Calm - N/A   Clear
10:53 AM 46.0 °F - 32.0 °F 58% 30.26 in 10.0 mi Calm Calm - N/A   Clear
11:53 AM 50.0 °F - 28.0 °F 43% 30.24 in 10.0 mi Calm Calm - N/A   Clear
12:53 PM 54.0 °F - 28.0 °F 37% 30.23 in 10.0 mi Calm Calm - N/A   Clear
1:53 PM 57.0 °F - 24.1 °F 28% 30.21 in 10.0 mi ENE 5.8 mph - N/A   Clear
2:53 PM 57.9 °F - 19.0 °F 22% 30.19 in 10.0 mi Calm Calm - N/A   Clear
3:53 PM 62.1 °F - 23.0 °F 22% 30.16 in 10.0 mi Calm Calm - N/A   Clear
4:53 PM 63.0 °F - 23.0 °F 22% 30.14 in 10.0 mi SSE 4.6 mph - N/A   Clear
5:53 PM 62.1 °F - 21.0 °F 21% 30.13 in 10.0 mi East 4.6 mph - N/A   Clear
6:53 PM 62.1 °F - 19.0 °F 19% 30.12 in 10.0 mi Calm Calm - N/A   Clear
7:53 PM 57.9 °F - 21.0 °F 24% 30.10 in 10.0 mi ESE 4.6 mph - N/A   Clear
8:53 PM 55.0 °F - 23.0 °F 29% 30.10 in 10.0 mi SE 4.6 mph - N/A   Clear
9:53 PM 50.0 °F - 24.1 °F 36% 30.11 in 10.0 mi Calm Calm - N/A   Clear
10:53 PM 44.1 °F - 27.0 °F 51% 30.10 in 10.0 mi Calm Calm - N/A   Clear
11:53 PM 42.1 °F 40.2 °F 28.0 °F 58% 30.07 in 10.0 mi East 3.5 mph - N/A   Clear